STARLINK-34065, 63813

Orbit data source: Space-Track

STARLINK-34065, 63813 is a payload satellite owned by SpaceX/Seattle (US) in LEO that was launched on Sun, 04 May 2025 UTC via an FALCON 9 launch vehicle from the Air Force Eastern Test Range (AFETR). Payload-class satellites include a variety of spacecraft equipped with specific instruments for various scientific and technological missions. These include communications satellites like Starlink; space stations such as the ISS; scientific satellites like the Hubble; Earth observation satellites from companies like Planet Labs, Umbra, and HawkEye 360; GPS; miniature CubeSats for education and research; and military/defense satellites.

Loading next visibility...
Identifier
63813, 2025-092K
Orbit
LEO
Country
Flag of USUS
Related business
Manufacturer
SpaceX/Seattle
Mission
Operational Commercial Communications
Bus & Motor
STARLINK V2MO, Unknown motor
Mass
575 kg wet, ~530 kg dry
Launch date (UTC)
2025-05-04 (9 months ago)
Launch vehicle
FALCON 9
Launch site
Air Force Eastern Test Range (AFETR)
Object type
Payload
Rocket body
Debris
Shape & HBR
Box + 2 Pan, 17.7 m
Radar Cross Section
36.964 m², Large (>1 m²)

Expand to show TLE details & history
Last TLE update: 23 hours ago

TLE from 23 hours ago
0 STARLINK-34065
1 63813U 25092K   26034.19908223  .00029296  00000-0  10689-2 0  9992
2 63813  43.0016   3.4891 0001211 266.0780  93.9933 15.27610040 43320
Epoch: 2026-02-03T04:46Z
TLE epoch observation values (Epoch: 2026-02-03T04:46:40.704Z)
Latitude
-0.00004°
Longitude
158.43601°
Altitude
482.793 km
Speed
7.626 km/s
True Right ascension
00h 13m 57s
True Declination
0° 00' 00"
Sunlit
Object was in daylight at epoch
Visualization orbit readout
Latitude
Unknown
Longitude
Unknown
Altitude
Unknown
Speed
Unknown
Apparent Right ascension
Unknown
Apparent Declination
Unknown
Sunlit
N/A
Visualization observer readout
Local Sidereal Time
05:39:46
Azimuth
Unknown
Elevation
Unknown
Doppler factor
Unknown
Orbital elements
Apogee altitude
485.735 km
Perigee altitude
484.073 km
Semi-major axis
6,863.041 km
Eccentricity
0.00012
Inclination
43.0016°
RAAN
3.4891°
Arg. of periapsis
266.078°
True anomaly
94.00714°
Mean anomaly
93.9933°
Eccentric anomaly
94.00022°
Mean motion
3.81741 °/min
Orbital period
94.3 mins
BSTAR
0.0010689
Loading maneuver chart data...
Computing Atmospheric mass density...
Loading historical data...
Loading historical data...
Loading historical data...
Loading historical data...
Loading historical data...
Loading historical data...
Loading historical data...

Documentation

Showing up to 5 results
|